TimeEST,TemperatureF,Dew PointF,Humidity,Sea Level PressureIn,VisibilityMPH,Wind Direction,Wind SpeedMPH,Gust SpeedMPH,PrecipitationIn,Events,Conditions,WindDirDegrees,DateUTC
12:15 AM,30.2,24.8,80,30.05,10.0,Calm,Calm,-,N/A,,Clear,0,2012-12-23 05:15:00
12:35 AM,29.5,24.6,82,30.05,10.0,Calm,Calm,-,N/A,,Clear,0,2012-12-23 05:35:00
12:55 AM,29.3,25.2,85,30.05,10.0,Calm,Calm,-,N/A,,Clear,0,2012-12-23 05:55:00
1:15 AM,29.1,24.8,84,30.05,10.0,Calm,Calm,-,N/A,,Clear,0,2012-12-23 06:15:00
1:35 AM,28.4,25.0,87,30.05,10.0,Calm,Calm,-,N/A,,Clear,0,2012-12-23 06:35:00
1:55 AM,27.5,23.9,86,30.06,10.0,Calm,Calm,-,N/A,,Clear,0,2012-12-23 06:55:00
2:15 AM,28.2,24.3,85,30.07,10.0,Calm,Calm,-,N/A,,Clear,0,2012-12-23 07:15:00
2:35 AM,28.2,25.2,88,30.07,10.0,WSW,3.5,-,N/A,,Clear,250,2012-12-23 07:35:00
2:55 AM,27.3,24.6,90,30.07,10.0,WSW,3.5,-,N/A,,Clear,250,2012-12-23 07:55:00
3:15 AM,28.0,24.8,88,30.07,10.0,WSW,3.5,-,N/A,,Clear,250,2012-12-23 08:15:00
3:35 AM,27.3,24.1,88,30.06,10.0,Calm,Calm,-,N/A,,Clear,0,2012-12-23 08:35:00
3:55 AM,26.6,24.3,91,30.06,10.0,Calm,Calm,-,N/A,,Clear,0,2012-12-23 08:55:00
4:15 AM,26.1,23.5,90,30.06,10.0,Calm,Calm,-,N/A,,Clear,0,2012-12-23 09:15:00
4:35 AM,26.2,23.7,90,30.06,10.0,Calm,Calm,-,N/A,,Clear,0,2012-12-23 09:35:00
4:55 AM,25.0,22.5,90,30.07,10.0,Calm,Calm,-,N/A,,Clear,0,2012-12-23 09:55:00
5:15 AM,25.9,23.4,90,30.06,10.0,Calm,Calm,-,N/A,,Scattered Clouds,0,2012-12-23 10:15:00
5:35 AM,25.5,23.7,93,30.06,10.0,Calm,Calm,-,N/A,,Clear,0,2012-12-23 10:35:00
5:55 AM,23.9,22.3,94,30.06,10.0,Calm,Calm,-,N/A,,Clear,0,2012-12-23 10:55:00
6:15 AM,25.3,23.9,94,30.08,10.0,Calm,Calm,-,N/A,,Clear,0,2012-12-23 11:15:00
6:35 AM,25.7,23.9,93,30.08,10.0,Calm,Calm,-,N/A,,Clear,0,2012-12-23 11:35:00
6:55 AM,24.3,22.3,92,30.08,10.0,Calm,Calm,-,N/A,,Clear,0,2012-12-23 11:55:00
7:15 AM,23.7,22.1,94,30.08,10.0,Calm,Calm,-,N/A,,Clear,0,2012-12-23 12:15:00
7:35 AM,24.6,22.6,92,30.08,10.0,Calm,Calm,-,N/A,,Clear,0,2012-12-23 12:35:00
7:55 AM,24.6,22.5,91,30.08,10.0,Calm,Calm,-,N/A,,Clear,0,2012-12-23 12:55:00
8:15 AM,25.9,24.3,94,30.07,10.0,Calm,Calm,-,N/A,,Clear,0,2012-12-23 13:15:00
8:35 AM,27.5,26.2,95,30.07,10.0,Calm,Calm,-,N/A,,Clear,0,2012-12-23 13:35:00
8:55 AM,29.3,25.7,86,30.07,10.0,Calm,Calm,-,N/A,,Clear,0,2012-12-23 13:55:00
9:15 AM,31.6,26.4,81,30.07,10.0,Calm,Calm,-,N/A,,Clear,0,2012-12-23 14:15:00
9:35 AM,33.1,26.8,78,30.07,10.0,SE,3.5,-,N/A,,Clear,140,2012-12-23 14:35:00
9:55 AM,36.1,26.1,67,30.07,10.0,SE,3.5,-,N/A,,Clear,140,2012-12-23 14:55:00
10:15 AM,39.0,25.2,58,30.06,10.0,SE,3.5,-,N/A,,Clear,140,2012-12-23 15:15:00
10:35 AM,40.8,25.9,55,30.05,10.0,SE,3.5,-,N/A,,Clear,130,2012-12-23 15:35:00
10:55 AM,43.3,23.0,45,30.04,10.0,SE,5.8,-,N/A,,Clear,140,2012-12-23 15:55:00
11:15 AM,45.7,18.9,34,30.02,10.0,South,8.1,-,N/A,,Clear,190,2012-12-23 16:15:00
11:35 AM,46.8,19.0,33,30.01,10.0,South,8.1,-,N/A,,Clear,180,2012-12-23 16:35:00
11:55 AM,47.3,21.0,35,30.00,10.0,SSW,5.8,-,N/A,,Clear,210,2012-12-23 16:55:00
12:15 PM,48.6,21.0,34,29.98,10.0,Calm,Calm,-,N/A,,Clear,0,2012-12-23 17:15:00
12:35 PM,49.1,20.3,32,29.97,10.0,South,6.9,-,N/A,,Clear,190,2012-12-23 17:35:00
12:55 PM,49.1,21.0,33,29.97,10.0,SW,8.1,-,N/A,,Clear,220,2012-12-23 17:55:00
1:15 PM,48.4,21.0,34,29.96,10.0,SSW,10.4,-,N/A,,Clear,200,2012-12-23 18:15:00
1:35 PM,47.3,21.0,35,29.95,10.0,SSW,6.9,-,N/A,,Scattered Clouds,200,2012-12-23 18:35:00
1:55 PM,47.3,21.4,36,29.95,10.0,SSW,8.1,-,N/A,,Clear,200,2012-12-23 18:55:00
2:15 PM,47.5,21.9,36,29.94,10.0,SW,6.9,-,N/A,,Clear,220,2012-12-23 19:15:00
2:35 PM,48.2,22.5,36,29.93,10.0,South,4.6,-,N/A,,Clear,170,2012-12-23 19:35:00
2:55 PM,49.1,23.2,36,29.93,10.0,South,3.5,-,N/A,,Clear,170,2012-12-23 19:55:00
3:15 PM,50.0,23.9,36,29.92,10.0,SSW,4.6,-,N/A,,Clear,200,2012-12-23 20:15:00
3:35 PM,50.4,23.9,36,29.92,10.0,SSW,6.9,-,N/A,,Clear,200,2012-12-23 20:35:00
3:55 PM,50.4,23.7,35,29.91,10.0,SSW,9.2,-,N/A,,Clear,200,2012-12-23 20:55:00
4:15 PM,49.8,24.3,37,29.92,10.0,SW,5.8,-,N/A,,Clear,220,2012-12-23 21:15:00
4:35 PM,49.3,23.9,37,29.92,10.0,SW,6.9,-,N/A,,Clear,220,2012-12-23 21:35:00
4:55 PM,48.4,23.9,38,29.92,10.0,SW,5.8,-,N/A,,Clear,220,2012-12-23 21:55:00
5:15 PM,47.7,23.7,39,29.92,10.0,SSW,5.8,-,N/A,,Clear,210,2012-12-23 22:15:00
5:35 PM,46.4,23.5,41,29.92,10.0,SSW,5.8,-,N/A,,Clear,210,2012-12-23 22:35:00
5:55 PM,46.0,23.7,42,29.93,10.0,SSW,4.6,-,N/A,,Clear,210,2012-12-23 22:55:00
6:15 PM,45.0,23.9,44,29.93,10.0,Calm,Calm,-,N/A,,Clear,0,2012-12-23 23:15:00
6:35 PM,43.9,24.3,46,29.93,10.0,Calm,Calm,-,N/A,,Clear,0,2012-12-23 23:35:00
6:55 PM,43.3,24.6,48,29.94,10.0,Calm,Calm,-,N/A,,Clear,0,2012-12-23 23:55:00
7:15 PM,42.3,24.8,50,29.94,10.0,Calm,Calm,-,N/A,,Clear,0,2012-12-24 00:15:00
7:35 PM,38.1,26.8,64,29.93,10.0,Calm,Calm,-,N/A,,Clear,0,2012-12-24 00:35:00
7:55 PM,37.0,26.2,65,29.94,10.0,Calm,Calm,-,N/A,,Clear,0,2012-12-24 00:55:00
8:15 PM,37.9,27.0,65,29.94,10.0,WSW,3.5,-,N/A,,Clear,240,2012-12-24 01:15:00
8:35 PM,39.7,26.6,59,29.94,10.0,Calm,Calm,-,N/A,,Clear,0,2012-12-24 01:35:00
8:55 PM,39.4,26.6,60,29.94,10.0,WSW,4.6,-,N/A,,Clear,240,2012-12-24 01:55:00
9:15 PM,40.1,27.0,59,29.96,10.0,WSW,6.9,-,N/A,,Clear,240,2012-12-24 02:15:00
9:35 PM,39.2,27.3,62,29.96,10.0,WSW,3.5,-,N/A,,Clear,240,2012-12-24 02:35:00
9:55 PM,40.6,26.6,57,29.96,10.0,West,3.5,-,N/A,,Clear,270,2012-12-24 02:55:00
10:15 PM,40.6,26.4,57,29.97,10.0,Calm,Calm,-,N/A,,Clear,0,2012-12-24 03:15:00
10:35 PM,39.4,28.0,64,29.98,10.0,NNW,3.5,-,N/A,,Clear,330,2012-12-24 03:35:00
10:55 PM,36.9,28.2,71,29.98,10.0,North,6.9,-,N/A,,Clear,350,2012-12-24 03:55:00
11:15 PM,35.1,28.4,77,29.99,10.0,Calm,Calm,-,N/A,,Clear,0,2012-12-24 04:15:00
11:35 PM,33.4,28.2,81,29.99,10.0,Calm,Calm,-,N/A,,Clear,0,2012-12-24 04:35:00
11:55 PM,33.1,27.7,81,29.99,10.0,Calm,Calm,-,N/A,,Clear,0,2012-12-24 04:55:00